Meknes, Morocco

8:55 PM WEST on September 25, 2017 (GMT +0100)
Meknes

Weather History for GMFM - November, 2012

Change the Weather History Date:

Friday, November 30, 2012

  Actual Average (GMFF) Record (GMFF)
Temperature  
Mean Temperature 45 °F -  
Max Temperature 48 °F 60 °F 73 °F (2015)
Min Temperature 42 °F 42 °F 35 °F (1996)
Degree Days  
Heating Degree Days 20    
Moisture  
Dew Point 40 °F    
Average Humidity 82    
Maximum Humidity 93    
Minimum Humidity 57    
Precipitation  
Precipitation 0.71 in 0.11 in - ()
Sea Level Pressure  
Sea Level Pressure 29.82 in    
Wind  
Wind Speed 11 mph ()    
Max Wind Speed 20 mph    
Max Gust Speed 30 mph    
Visibility 3.9 miles    
Events Rain    
Averages and records for this station are not official NWS values.
T = Trace of Precipitation, MM = Missing Value Source: Averaged Metar Reports

Daily Weather History Graph

Daily Weather History Graph

Search for Another Location

Airport or City:

Trip Planner

Search our weather history database for the weather conditions in past years. The results will help you decide how hot, cold, wet, or windy it might be!

Date:

Astronomy

Nov. 30, 2012 Rise Set
Actual Time 7:08 AM WET 5:13 PM WET
Civil Twilight 6:41 AM WET 5:40 PM WET
Nautical Twilight 6:10 AM WET 6:11 PM WET
Astronomical Twilight 5:40 AM WET 6:41 PM WET
Moon 6:55 PM WET (11/30) 8:30 AM WET (11/30)
Length of Visible Light 10h 59m
Length of Day
10h 04m
Full, 97% of the Moon is Illuminated
Nov 30
Full
Dec 6
Last Quarter
Dec 13
New
Dec 20
First Quarter
Dec 28
Full

Hourly Weather History & Observations

Time (WET) Temp. Windchill Dew Point Humidity Pressure Visibility Wind Dir Wind Speed Gust Speed Precip Events Conditions
12:00 AM 44 °F - 40 °F 81% 30.08 in 5 mi SSW 5.8 mph - -   Partly Cloudy
8:00 AM 44.6 °F 37.4 °F 37.4 °F 76% 29.86 in 6.2 mi SSW 16.1 mph - N/A   Scattered Clouds
8:50 AM 48.2 °F - 37.4 °F 66% 29.83 in 5.0 mi South 19.6 mph 29.9 mph N/A   Mostly Cloudy
9:00 AM 48 °F - 38 °F 57% 29.84 in 5 mi South 19.6 mph - -   Mostly Cloudy
9:00 AM 48.2 °F - 37.4 °F 66% 29.83 in 5.0 mi South 19.6 mph 29.9 mph N/A   Mostly Cloudy
10:00 AM 46.4 °F 41.9 °F 39.2 °F 76% 29.86 in 5.0 mi WSW 9.2 mph - N/A Rain Light Rain
11:00 AM 44.6 °F 38.4 °F 41.0 °F 87% 29.86 in 3.7 mi SW 12.7 mph - N/A Rain Rain
12:00 PM 44 °F - 40 °F 80% 29.85 in 4 mi SSW 18.4 mph - - Rain Light Rain
12:00 PM 42.8 °F 34.5 °F 39.2 °F 87% 29.80 in 3.7 mi SSW 18.4 mph - N/A Rain Rain
1:00 PM 44.6 °F 37.8 °F 41.0 °F 87% 29.80 in 3.7 mi WSW 15.0 mph - N/A Rain Rain
2:00 PM 44.6 °F 38.8 °F 42.8 °F 93% 29.77 in 3.1 mi WSW 11.5 mph - N/A Rain Rain
3:00 PM 45 °F - 41 °F 80% 29.80 in 4 mi WSW 11.5 mph - - Rain Light Rain
3:00 PM 44.6 °F 38.8 °F 41.0 °F 87% 29.77 in 3.7 mi WSW 11.5 mph - N/A Rain Light Rain
4:00 PM 44.6 °F 38.1 °F 41.0 °F 87% 29.77 in 3.7 mi WSW 13.8 mph - N/A Rain Light Rain
5:00 PM 42.8 °F 35.4 °F 39.2 °F 87% 29.77 in 3.1 mi SW 15.0 mph - N/A Rain Light Rain
6:00 PM 42 °F - 39 °F 86% 29.83 in 3 mi West 6.9 mph - - Rain Light Rain
6:00 PM 42.8 °F 38.6 °F 39.2 °F 87% 29.77 in 3.1 mi West 6.9 mph - N/A Rain Light Rain
7:00 PM 42.8 °F 37.0 °F 39.2 °F 87% 29.80 in 3.1 mi SW 10.4 mph - N/A   Partly Cloudy
8:00 PM 42.8 °F 38.0 °F 39.2 °F 87% 29.80 in 3.7 mi SW 8.1 mph - N/A   Partly Cloudy
9:00 PM 43 °F - 40 °F 83% 29.84 in 3 mi WSW 9.2 mph - - Rain Light Rain
9:00 PM 42.8 °F 37.5 °F 39.2 °F 87% 29.80 in 3.1 mi WSW 9.2 mph - N/A Rain Light Rain
10:00 PM 42.8 °F 37.0 °F 39.2 °F 87% 29.83 in 3.1 mi SW 10.4 mph - N/A Rain Rain
11:00 PM 42.8 °F 36.6 °F 39.2 °F 87% 29.77 in 3.1 mi SSW 11.5 mph - N/A Rain Rain